COSMOS 2251 DEB

Satellite information

Favourite Embed

Satellite Type and Status

DEBRISIN ORBIT

Key statistics

Satellite COSMOS 2251 DEB at a glance.

Uptime

11772

Days in orbit

Revolutions

≈ 14.3

Per day

Orbit

LEO

Low Earth Orbit

Inclination

74.0

Latest

Satellite identification and parameters

Extended collection of information and parameters for COSMOS 2251 DEB.

Object identification

Identified? True

Debris? True

Object name: COSMOS 2251 DEB

International designator: 1993-036E

Object number (NORAD): 33757

Object ID (CCSDS): 33757

Country: COMMONWEALTH OF INDEPENDENT STATES (CIS)

Current information (Y/N): Y

RCS size: MEDIUM

Orbital parameters

Period: 100.52 minutes

Inclination: 74.0368 deg

SMA: 7161.366 km

Apoapsis: 793.902 km

Periapsis: 772.561 km

RAAN: 138.513 deg

Eccentricy: 0.00149003

Argument of periapsis: 183.6927 deg

Mean anomaly: 193.2554 deg

Mean motion: 14.32547162 rev/day

Mean motion (dot): 0.00000108 rev/day2

B* drag term: 0.000049495691 1/REarth

Two-line elements (TLE)

Creation date: Sept. 8, 2025, 3:16 a.m.

Reference frame: TEME

Reference center: EARTH

Epoch: Sept. 7, 2025, 10:19 p.m. UTC

TLE line 0: 0 COSMOS 2251 DEB

TLE line 1: 1 33757U 93036E 25250.92995888 .00000108 00000-0 49496-4 0 9993

TLE line 2: 2 33757 74.0368 138.5130 0014900 183.6927 193.2554 14.32547162866246

Live tracking on map

Real-time ground track for satellite COSMOS 2251 DEB.

In-orbit conjunctions

A list of the most updated potential collisions computed for object COSMOS 2251 DEB.

Target Orbit TCA Probability of collision Miss distance Type
ARIANE 1 DEB SSO 2025-01-25 03:09:05 0.0001264478 140.0 (m) DEBRIS
DMSP 5D-2 F13 DEB SSO 2024-09-01 21:51:33 0.0002754831 72.0 (m) DEBRIS
DMSP 5D-3 F16 DEB SSO 2024-08-12 17:08:31 0.0003031583 280.0 (m) DEBRIS
FENGYUN 1C DEB SSO 2024-07-08 15:40:09 0.0002638692 456.0 (m) DEBRIS

Associated space launch

Military communications satellite. Destroyed in a collision with Iridium 33.

COSMOS 2251 DEB was lifted into orbit during the mission ‘Kosmos-3M | Strela-2M 51’, on board a Kosmos-3M space rocket.

The launch took place on June 16, 1993, 4:17 a.m. from 132/1 (132L).

For more information about the launch, click the button.

Launch to space Kosmos-3M | Strela-2M 51
Kosmos-3M | Strela-2M 51

Agency: N/A

Status: Launch Successful

Launch date: June 16, 1993, 4:17 a.m. UTC

Rocket: Kosmos-3M

Launch pad: 132/1 (132L)

Location: Plesetsk Cosmodrome, Russian Federation

...

Latest news about this satellite

There are no fresh news available about this satellite. Check back as we update our databases every day.


Newsletter sign-up

Weekly statistics, charts and insights to help you stay on top of the space industry.